This is the latest recevied weather packets stored in our database for station/object KC9EGS. If no packets are shown the sender has not sent any weather packets the latest 10 day(s).
| Time | Temp. | Humidity | Pressure | Rain* | Wind** | Luminosity | Snow |
|---|---|---|---|---|---|---|---|
| 1777872919 | 6.11° C | 66% | 996.3 hPa | 0 mm | - | - | - |
| 1777872313 | 6.11° C | 66% | 996.4 hPa | 0 mm | - | - | - |
| 1777871720 | 6.11° C | 66% | 996.4 hPa | 0 mm | - | - | - |
| 1777871414 | 6.67° C | 65% | 996.8 hPa | 0 mm | - | - | - |
| 1777870513 | 6.67° C | 64% | 997 hPa | 0 mm | - | - | - |
| 1777869919 | 7.22° C | 64% | 997 hPa | 0 mm | - | - | - |
| 1777869614 | 7.22° C | 63% | 997 hPa | 0 mm | - | - | - |
| 1777869320 | 7.22° C | 63% | 997 hPa | 0 mm | - | - | - |
| 1777868715 | 7.78° C | 62% | 997 hPa | 0 mm | - | - | - |
| 1777868118 | 8.33° C | 60% | 997 hPa | 0 mm | - | - | - |
| 1777867814 | 8.33° C | 58% | 997.4 hPa | 0 mm | - | - | - |
| 1777867520 | 8.33° C | 58% | 997.4 hPa | 0 mm | - | - | - |
| 1777866915 | 8.89° C | 55% | 997.4 hPa | 0 mm | - | - | - |
| 1777866320 | 9.44° C | 55% | 997.4 hPa | 0 mm | - | - | - |
| 1777866013 | 9.44° C | 55% | 997.5 hPa | 0 mm | - | - | - |
| 1777865719 | 9.44° C | 55% | 997.5 hPa | 0 mm | - | - | - |
| 1777865115 | 9.44° C | 51% | 997.5 hPa | 0 mm | - | - | - |
| 1777864519 | 10° C | 51% | 997.5 hPa | 0 mm | - | - | - |
| 1777864214 | 10° C | 50% | 997.7 hPa | 0 mm | - | - | - |
| 1777863315 | 10.56° C | 44% | 997.7 hPa | 0 mm | - | - | - |
| 1777862413 | 11.11° C | 43% | 997.6 hPa | 0 mm | - | - | - |
| 1777862125 | 11.11° C | 42% | 997.6 hPa | 0 mm | - | - | - |
| 1777861513 | 11.67° C | 39% | 997.6 hPa | 0 mm | - | - | - |
| 1777860614 | 13.33° C | 33% | 997.6 hPa | 0 mm | - | - | - |
| 1777859713 | 14.44° C | 34% | 997.6 hPa | 0 mm | - | - | - |
* Rain latest hour (hover to see other rain measurements)
** Current wind speed in m/s (hover to see current wind gust speed)